Время (UTC), дата Ветер
(°,м/с) 
Видим.   Явления Облачность Т
(°С)
Тd
(°С)
f(%) Тe
(°С)
Pmin
(гПа)
dP
(гПа)
Po
(мм)
O2
(г/м3)
Тmin Tmax R s Состояние
почвы
00 03.03.15 300 (СЗ) 3000 м  дымка{морось}  10/10 100 м 
[St]
+1.8 +1.1 95 1019.1  0.1  723  289           
03 03.03.15 300 (СЗ) 20000 м    10/6 600 м средняя 
[Sc|Ac und]
+1.2 -1.6 82 +1  1019.5  0.2  723  290  +1.2    0.0     
06 03.03.15 250 (З) 20000 м    10/8 1080 м средняя 
[Sc|Ac und]
+2.5 -0.9 78 1019.4  0.2  723  289  +0.4         
09 03.03.15 280 (З) 20000 м    10/8 800 м средняя 
[Sc|Ac und]
+4.4 -1.2 67 +3  1018.3  -0.7  723  287           
12 03.03.15 300 (СЗ) 20000 м    9/8 750 м средняя 
[Sc|Ac trans]
+4.7 -1.7 63 +4  1017.7  -0.5  722  286           
15 03.03.15 360 (С) 20000 м    9/6 800 м средняя 
[Sc|Ac trans]
+3.5 -1.2 71 +3  1017.8  0.1  722  287    +5.1       
18 03.03.15 140 (ЮВ) 20000 м    3/0 средняя 
[Ac trans]
+1.1 -1.6 82 +2  1018.1  -0.3  722  290           
21 03.03.15 110 (В) 20000 м    3/0 средняя 
[Ac trans]
-0.7 -2.3 89 -2  1017  -1.4  721  291           
00 04.03.15 140 (ЮВ) 20000 м    3/0 средняя 
[Ac trans]
-1.3 -2.8 90 -2  1015.7  -1.3  720  292           
03 04.03.15 110 (В) 20000 м    5/0 средняя 
[Ac trans]
-1.8 -2.7 94 -1  1015.6  -0.2  720  292  -2.4         
06 04.03.15 160 (Ю) 20000 м    3/0 средняя, верхняя 
[Ac trans|Ci fib]
+3.4 +0.3 80 +3  1014.4  0.1  720  286  -2.7         
09 04.03.15 120 (ЮВ) 20000 м    3/1 1000 м средняя, верхняя 
[Sc|Ac As|Ci fib]
+8.8 +1 58 +9  1013.1  -0.2  720  281           
12 04.03.15 320 (СЗ) 20000 м    10/8 960 м кучево-дожд., средняя 
[Cb cap|Ac und]
+9.2 +1.4 58 +8  1013.5  0.5  720  280           
15 04.03.15 280 (З) 8-13{15}  20000 м  в посл. час ливневой дождь  10/5 300 м кучево-дожд., средняя 
[Cb cap|Ac und]
+2.4 +0.5 87 -1  1017.5  2.5  722  288    +10.3  0.7     
18 04.03.15 280 (З) 6-11{16}  20000 м  {ливн. осадки}  10/5 600 м кучево-дожд., средняя 
[Cb calv|Ac und]
+2.5 -1.6 74 1019.6  2.5  723  289           
21 04.03.15 260 (З) 6-10{11}  20000 м    10/3 600 м средняя 
[Sc diur, vesp|As trans]
+2.1 -1.9 75 -1  1020  0.3  724  289           
00 05.03.15 270 (З) 7-11{11}  20000 м    10/0 средняя, верхняя 
[As trans|Cs]
+1.5 -2.3 76 -2  1020.4  0.2  724  290           
03 05.03.15 250 (З) 8-11{11}  20000 м    5/0 средняя 
[Ac und]
+0.8 -2.6 78 -3  1021.3  0.7  724  291  +0.8         
06 05.03.15 240 (ЮЗ) 9-13{13}  20000 м    5/3 400 м верхняя 
[St|Ci fib]
+3.1 -2.4 67 -1  1022.2  1.3  725  289  +0.5         
09 05.03.15 240 (ЮЗ) 10-15{18}  20000 м    8/4 480 м кучево-дожд., средняя 
[Cb calv|Ac trans]
+5.9 -2.6 54 +2  1021.7  0.1  725  286           
12 05.03.15 240 (ЮЗ) 11-14{18}  20000 м  в посл. час ливневой снег  9/6 180 м кучево-дожд., средняя 
[Cb cap|Ac trans]
+2.4 -0.5 81 -2  1023.5  726  290           
15 05.03.15 270 (З) 10-17{18}  4000 м  слаб. ливневой дождь  10/6 240 м кучево-дожд., средняя 
[Cb cap|Ac und]
+0.1 -0.9 93 -5  1025.7  1.7  727  293    +6.3  0.6     
18 05.03.15 280 (З) 7-11{16}  4000 м  слаб. ливневой снег  10/8 150 м кучево-дожд., средняя 
[Cb cap|Ac und]
+0 -0.7 95 -4  1028.1  2.2  729  294           
21 05.03.15 270 (З) 5{13}  20000 м  {ливн. осадки}  10/8 240 м кучево-дожд., средняя 
[Cb calv|Ac und]
+0.1 -1 92 -3  1029.2  1.1  730  294           
00 06.03.15 280 (З) 20000 м    10/6 540 м кучево-дожд., средняя 
[Cb calv|Ac und]
-0.6 -2 90 -2  1029.6  0.3  730  295           
03 06.03.15 260 (З) 20000 м    10/4 1000 м средняя, верхняя 
[Sc|Ac trans|Ci fib]
-2.6 -3.7 92 -5  1030.6  0.5  730  297  -2.6    0.5  равномерный
мокрый или
старый снег
100% 
06 06.03.15 210 (ЮЗ) 20000 м    10/3 600 м средняя 
[Sc|Ac und]
+1.2 -0.9 86 +2  1030.6  0.8  731  293           
09 06.03.15 270 (З) 20000 м    8/5 600 м верхняя 
[Sc|Ci fib]
+5.8 +1.1 72 +5  1029.2  -0.4  731  288           
12 06.03.15 340 (С) 20000 м    4/3 600 м верхняя 
[Sc|Ci fib]
+7.8 -4.1 43 +8  1027.8  -1  730  286           
15 06.03.15 060 (СВ) 20000 м    9/0 средняя 
[Ac trans]
+5.5 -2 58 +4  1028.2  0.1  730  288    +8.2       
18 06.03.15 080 (В) 20000 м    8/0 средняя 
[Ac trans]
+2.9 -2 70 +2  1028.6  0.1  730  291           
21 06.03.15 090 (В) 20000 м    8/0 средняя 
[Ac trans]
+1.2 -1.7 81 1027.9  0.1  729  293           
00 07.03.15 110 (В) 20000 м    10/0 средняя 
[Ac und]
+1.5 -2.2 76 1026.4  -1.4  728  292           
03 07.03.15 060 (СВ) 20000 м    10/0 средняя 
[Ac und]
+0.6 -1.9 83 -1  1026.1  -0.5  728  293  -0.6         
06 07.03.15 090 (В) 3000 м  слаб. ливневой снег  10/8 210 м кучево-дожд., средняя 
[Cb cap|Ac und]
+0.6 -0.9 90 -1  1027.2  -0.5  728  293           
09 07.03.15 130 (ЮВ) 2500 м  слаб. ливневой снег  10/8 120 м кучево-дожд., средняя 
[Cb cap|Ac und]
+1.2 +0.4 94 1026.2  -0.8  728  292           
12 07.03.15 130 (ЮВ) 3500 м  слаб. ливневой дождь со снегом  10/8 150 м кучево-дожд., средняя 
[Cb cap|Ac und]
+1.3 +0.4 94 +2  1026  -0.2  728  292           
15 07.03.15 350 (С) 0700 м  ливневой снег  10/8 100 м кучево-дожд., средняя 
[Cb cap|Ac und]
-0.4 -1.1 95 -4  1028  1.6  729  294    +1.4     
18 07.03.15 350 (С) 2100 м  слаб. ливневой снег  10/8 100 м кучево-дожд., средняя 
[Cb cap|Ac und]
-1.5 -2.1 96 -4  1031  2.5  731  296           
21 07.03.15 360 (С) 0200 м  туман{ливн. осадки} [диам. гололёда 3 мм]  ?/?  
-2.1 -2.7 96 -3  1032.1  731  297           
00 08.03.15 310 (СЗ) 0200 м  туман{ливн. осадки} [диам. гололёда 4 мм]  ?/?  
-3.5 -4.3 94 -3  1032.6  -0.1  732  299           
03 08.03.15 тихо ()   20000 м  {туман} [диам. сложн. отлож. 5 мм]  ясно 
-5.7 -6.6 93 -6  1033.7  0.6  732  302  -7.3    равномерный
сухой снег
100% 
06 08.03.15 тихо ()   0200 м  переохл. туман [диам. сложн. отлож. 6 мм]  ?/?  
-4.7 -5.6 94 -5  1033.8  0.3  732  301  -7.7         
09 08.03.15 030 (СВ) 2000 м  дымка{туман} [диам. сложн. отлож. 7 мм]  5/5 180 м 
[St]
-1.9 -2.6 95 -3  1033.2  732  297           
12 08.03.15 020 (С) 20000 м  {туман}  6/6 600 м 
[Sc]
+0.6 -1.9 83 -2  1032.6  -0.1  732  295           
15 08.03.15 060 (СВ) 20000 м    8/8 660 м 
[Sc]
-0.7 -4.5 76 -3  1033.4  0.5  733  296    +0.9       
18 08.03.15 070 (В) 20000 м    3/3 600 м 
[Sc]
-4.2 -6.3 85 -6  1034.4  0.2  733  301           
21 08.03.15 090 (В) 20000 м    3/0 средняя 
[Ac trans]
-4.9 -6.4 89 -7  1034  -0.5  732  301           
00 09.03.15 080 (В) 20000 м    3/0 средняя 
[Ac trans]
-6.1 -7.1 93 -8  1034.4  0.1  733  303           
03 09.03.15 150 (ЮВ) 20000 м    ясно 
-5.8 -6.8 92 -7  1034.4  0.1  733  302  -6.6         
06 09.03.15 130 (ЮВ) 20000 м    ясно 
-1.9 -4.8 81 -4  1034.2  0.6  733  298           
09 09.03.15 120 (ЮВ) 20000 м    3/3 300 м 
[St]
+3.4 -2.8 64 +1  1032.2  -0.8  732  292           
12 09.03.15 100 (В) 20000 м    ясно 
+6.1 -2.5 54 +4  1031  -0.6  732  289           
15 09.03.15 090 (В) 20000 м    ясно 
+2.9 -2.7 67 +1  1031.2  -0.4  732  292    +6.2       
18 09.03.15 120 (ЮВ) 20000 м    ясно 
-0.7 -3.1 84 -3  1032.8  0.8  732  296           
21 09.03.15 150 (ЮВ) 20000 м    ясно 
+0 -3.5 77 -3  1031.8  -0.8  732  295           
00 10.03.15 140 (ЮВ) 20000 м    ясно 
-1.9 -4.3 84 -5  1032.1  0.1  732  297           
03 10.03.15 140 (ЮВ) 20000 м    ясно 
-1.8 -4.3 83 -5  1031.9  -0.2  731  297  -2.2         
06 10.03.15 160 (Ю) 20000 м    ясно 
+3.2 -2.2 68 +1  1030.6  -0.2  731  291  -2.4         
09 10.03.15 090 (В) 20000 м    ясно 
+9.2 -1.5 47 +8  1028.5  -0.8  731  285           
12 10.03.15 090 (В) 7-10{10}  20000 м    ясно 
+12.3 -4 32 +11  1027.1  -0.8  730  282           
15 10.03.15 100 (В) 6{10}  20000 м    ясно 
+8.1 -2 49 +6  1027.6  -0.2  730  286    +12.4       
18 10.03.15 110 (В) 20000 м    ясно 
+4.3 -3.4 57 +2  1028.5  0.1  730  290           
21 10.03.15 130 (ЮВ) 20000 м    ясно 
+2.3 -4.5 61 1027.1  -1.7  729  292           
00 11.03.15 130 (ЮВ) 20000 м    ясно 
+2 -3.9 65 1025.6  -1.4  728  291           
03 11.03.15 120 (ЮВ) 20000 м    ясно 
-0.7 -4.1 78 -3  1025.7  -1.4  727  294  -0.7         
06 11.03.15 120 (ЮВ) 20000 м    1/0 верхняя 
[Ci fib]
+5 -5.1 48 +2  1024.4  0.1  727  288  -1.2         
09 11.03.15 120 (ЮВ) 11-14{14}  20000 м    3/0 верхняя 
[Ci fib]
+12.9 -7 24 +11  1021.3  -1.5  726  280           
12 11.03.15 110 (В) 11-13{15}  20000 м    1/0 верхняя 
[Ci fib]
+14.3 -10 18 +13  1018.4  -2.4  724  278           
15 11.03.15 110 (В) 6{13}  20000 м    6/0 верхняя 
[Ci]
+9 -0.7 51 +7  1018.4  -0.9  723  282    +14.6       
18 11.03.15 110 (В) 20000 м    3/0 верхняя 
[Ci fib]
+5 -0.8 66 +3  1018.5  -0.7  723  286           
21 11.03.15 140 (ЮВ) 20000 м    9/0 средняя 
[Ac trans]
+3.4 +0.6 82 +1  1018.1  -0.6  722  287           
00 12.03.15 110 (В) 20000 м    10/0 средняя 
[Ac und]
+1.6 +0.6 93 -1  1017.1  -1.3  721  289           
03 12.03.15 120 (ЮВ) 0100 м  туман  ?/?  
+1.9 +1.2 95 -1  1016.2  -0.7  721  288  +1.3         
06 12.03.15 140 (ЮВ) 0600 м  туман  ?/?  
+2.4 +1.8 96 1016.2  0.1  721  288           
09 12.03.15 110 (В) 5000 м  дымка  10/10 150 м 
[St]
+5.6 +2.7 82 +4  1014.6  -0.9  720  284           
12 12.03.15 080 (В) 20000 м  {туман}  10/0 средняя 
[Ac As]
+9 +3.2 67 +8  1011.8  -2  719  280           
15 12.03.15 060 (СВ) 10 км    10/3 300 м средняя 
[Sc|As op]
+4.5 +2.7 88 +3  1012  -0.6  718  284    +9.8       
18 12.03.15 090 (В) 10 км    10/3 600 м средняя 
[Sc|Ac und]
+3.8 +2.5 91 +3  1011.4  -0.7  718  285           
21 12.03.15 110 (В) 20000 м    10/5 330 м средняя 
[Sc|Ac und]
+3.8 +2.5 91 +5  1010.9  -0.5  717  285           
00 13.03.15 320 (СЗ) 10 км    10/4 240 м средняя 
[St|Ac As]
+3.5 +2.5 93 +4  1010.3  -0.5  717  285           
03 13.03.15 280 (З) 10 км  в посл. час дождь  10/4 300 м средняя 
[Sc|Ac und]
+3.9 +2.8 93 +2  1012.5  2.1  719  285  +3.3    0.0     
06 13.03.15 310 (СЗ) 4000 м  дымка{дождь, морось}  10/6 150 м средняя 
[St|Ac und]
+4.8 +3.7 93 +4  1014.8  2.3  720  285           
09 13.03.15 320 (СЗ) 10 км  слаб. ливневой дождь  10/8 210 м кучево-дожд., средняя 
[Cb cap|Ac und]
+6.5 +5.2 91 +5  1016.9  2.3  722  283           
12 13.03.15 340 (С) 20000 м  {ливн. осадки}  10/8 330 м кучево-дожд., средняя 
[Cb calv|Ac und]
+8.8 +5.6 80 +8  1018.2  1.7  723  281           
15 13.03.15 030 (СВ) 20000 м    9/8 840 м кучево-дожд., средняя 
[Cb calv|Ac trans]
+7.7 +4.6 81 +8  1020.9  2.3  725  283    +9.8  0.4     
18 13.03.15 120 (ЮВ) 20000 м    10/5 1000 м средняя 
[Sc|Ac und]
+6.6 +4.7 88 +6  1023.7  2.5  727  285           
21 13.03.15 090 (В) 20000 м    3/0 средняя 
[Ac trans]
+5 +3.9 93 +5  1024.4  0.4  727  287           
00 14.03.15 210 (ЮЗ) 20000 м    3/0 средняя 
[Ac trans]
+1.7 +1 95 +1  1025.5  0.3  727  291           
03 14.03.15 080 (В) 2500 м  дымка  6/3 300 м средняя 
[St|Ac trans]
+2.2 +1.5 95 +1  1027  1.5  729  291  +1.3         
06 14.03.15 110 (В) 4000 м  дымка  4/4 100 м 
[St]
+5.1 +2.9 86 +3  1027.2  0.8  729  288           
09 14.03.15 090 (В) 7-10{10}  20000 м    3/0 средняя 
[Ac trans]
+10.3 +2.3 58 +9  1025.7  -0.4  729  283           
12 14.03.15 080 (В) 9-11{13}  20000 м    8/3 500 м средняя 
[Sc|Ac trans]
+8.2 +2.1 65 +5  1026.3  -0.1  729  285           
15 14.03.15 100 (В) 8-10{12}  20000 м    8/3 600 м средняя 
[Sc diur, vesp|Ac trans]
+4.1 +1 80 +1  1028  0.8  730  289    +10.8       
18 14.03.15 110 (В) 7{10}  10 км    10/0 средняя 
[Ac und]
+2.7 +1.2 90 -1  1028.4  0.2  730  291           
21 14.03.15 110 (В) 7-11{14}  10 км    10/6 240 м средняя 
[St|Ac und]
+2.1 +0.4 89 -1  1027.9  -0.6  729  291           
00 15.03.15 100 (В) 8-10{15}  0200 м  туман  ?/?  
+0.1 -0.5 96 -4  1027.8  -0.5  729  294           
03 15.03.15 100 (В) 8-12{12}  0100 м  туман  ?/?  
-0.1 -0.6 97 -4  1028  -0.1  729  294  -0.1         
06 15.03.15 110 (В) 12-15{17}  1800 м  дымка{туман}  10/10 100 м 
[St]
+0.7 +0.1 96 -5  1028.1  0.2  729  293  -0.3         
09 15.03.15 100 (В) 11-15{16}  10 км    10/10 180 м 
[St]
+2.4 +0.2 85 -2  1027.9  0.1  729  291           
12 15.03.15 100 (В) 11-15{17}  10 км    10/8 270 м средняя 
[St|Ac und]
+3.4 +0 78 -1  1028  0.2  729  290           
15 15.03.15 110 (В) 5{16}  20000 м    8/3 600 м средняя, верхняя 
[Sc|Ac trans|Ci fib]
+3.5 +0.4 80 +1  1028.4  0.5  730  290    +4.7       
18 15.03.15 090 (В) 9-13{13}  20000 м    9/0 средняя 
[Ac trans]
+2.6 -3 67 -1  1028.8  0.1  730  292           
21 15.03.15 100 (В) 8-11{13}  20000 м    10/6 270 м средняя 
[Sc|Ac und]
+0.4 -2 84 -4  1029.3  730  294           
00 16.03.15 090 (В) 7{11}  10 км    8/8 180 м 
[St]
-1.3 -2.2 94 -5  1029.7  0.1  730  296           
03 16.03.15 070 (В) 4{10}  0600 м  туман  ?/?  
-1.5 -2.1 96 -4  1030.6  0.8  731  296  -1.7         
06 16.03.15 060 (СВ) 4000 м  дымка{туман}  10/6 150 м средняя 
[St|Ac und]
-0.4 -1 96 -3  1031.3  0.8  731  295  -1.9         
09 16.03.15 060 (СВ) 7-10{10}  20000 м    3/0 верхняя 
[Ci fib]
+7.3 -7.3 35 +5  1029.2  0.8  731  287           
12 16.03.15 060 (СВ) 7-13{13}  20000 м    4/0 верхняя 
[Ci fib]
+9.2 -8.6 28 +7  1027.8  -1  730  285           
15 16.03.15 040 (СВ) 8-11{13}  20000 м    8/0 средняя 
[Ac trans]
+6 -6.5 40 +3  1028.9  0.5  730  289    +9.5       
18 16.03.15 050 (СВ) 9-12{16}  20000 м    10/5 1300 м средняя 
[Sc|Ac und]
+1.1 -6.3 58 -3  1030.7  0.7  731  294           
21 16.03.15 050 (СВ) 8-12{12}  20000 м  слаб. ливневой снег  10/8 600 м кучево-дожд., средняя 
[Cb cap|Ac und]
-0.8 -4.9 74 -5  1030.1  -0.9  730  296           
00 17.03.15 070 (В) 9-11{12}  10 км  слаб. ливневой снег  10/5 210 м кучево-дожд., средняя 
[Cb cap|Ac und]
-1.9 -2.6 95 -7  1029.2  -1  730  296           
03 17.03.15 070 (В) 8-11{12}  10 км  слаб. ливневой снег  10/8 150 м кучево-дожд., средняя 
[Cb cap|Ac und]
-2 -2.8 94 -7  1028.2  -1  729  296  -2    0.3  равномерный
сухой снег
100% 
06 17.03.15 090 (В) 12-16{17}  10 км  {ливн. осадки}  10/8 300 м кучево-дожд., средняя 
[Cb calv|Ac und]
-0.7 -2.7 86 -6  1028  -0.1  729  295  -2.2         
09 17.03.15 100 (В) 14-19{19}  20000 м    9/8 660 м кучево-дожд., средняя 
[Cb calv|Ac trans]
+4.2 -2.7 61 -1  1027.6  0.6  729  290           
12 17.03.15 090 (В) 11-15{19}  20000 м    10/8 930 м кучево-дожд., средняя 
[Cb calv|Ac und]
+4.6 -3.5 56 +1  1028.2  0.7  730  290           
15 17.03.15 090 (В) 8-11{17}  20000 м    9/3 1000 м средняя 
[Sc diur, vesp|Ac trans]
+3.1 -6.6 49 1029.9  0.7  731  292    +6.1  0.0     
18 17.03.15 070 (В) 6{11}  20000 м    4/0 средняя 
[Ac trans]
+0.1 -4.2 73 -3  1031.4  0.8  731  295           
21 17.03.15 090 (В) 20000 м    ясно 
-1.3 -4.3 80 -5  1031  -0.6  731  296           
00 18.03.15 090 (В) 20000 м    3/0 средняя 
[Ac trans]
-2.9 -4.4 89 -6  1031.3  0.1  731  298           
03 18.03.15 110 (В) 4000 м  дымка{туман} [диам. гололёда 1 мм]  10/10 60 м 
[St]
-0.7 -1.3 96 -4  1031.1  0.3  731  295  -3.3         
06 18.03.15 110 (В) 8-11{11}  20000 м  {туман} [диам. гололёда 1 мм]  8/6 180 м средняя 
[St|Ac trans]
+2.6 -0.4 81 -1  1030.6  0.2  731  292           
09 18.03.15 100 (В) 9-12{14}  20000 м    10/8 500 м средняя 
[Sc|Ac und]
+4 -0.9 70 1030  -0.3  731  290           
12 18.03.15 090 (В) 9-12{13}  20000 м    10/8 360 м средняя 
[St|Ac und]
+3.4 +0.1 79 1029.6  -0.5  731  291           
15 18.03.15 090 (В) 7-10{13}  20000 м    10/8 400 м средняя 
[St|Ac und]
+3.1 -0 80 1029  -0.6  730  291    +5.3       
18 18.03.15 100 (В) 7-10{10}  20000 м    10/3 600 м средняя 
[Sc|Ac und]
+2.6 -0.2 82 -1  1029  0.1  730  291           
21 18.03.15 100 (В) 6{10}  20000 м    10/8 270 м средняя 
[St|Ac und]
+2.4 +0.7 88 -1  1027.3  -1.6  729  291           
00 19.03.15 120 (ЮВ) 7-11{11}  4000 м  дымка  10/10 120 м 
[St]
+2.2 +1.4 95 -1  1026.2  -1  728  291           
03 19.03.15 110 (В) 7-10{11}  20000 м    10/6 210 м средняя 
[St|Ac und]
+1.6 +0.2 91 -2  1026.1  -0.2  728  291  +1.6         
06 19.03.15 120 (ЮВ) 9-12{13}  20000 м    10/6 240 м средняя 
[St|Ac und]
+2.6 +0.5 86 -1  1026  728  290  +1.2         
09 19.03.15 110 (В) 9-12{14}  20000 м    10/8 500 м средняя 
[Sc|Ac und]
+4 +0.4 77 1025  -0.6  727  289           
12 19.03.15 110 (В) 10-13{14}  20000 м    10/8 840 м средняя 
[Sc|Ac und]
+6.4 -0.4 62 +3  1023.1  -1.4  726  286           
15 19.03.15 110 (В) 9-12{14}  20000 м    10/8 800 м средняя 
[Sc|Ac und]
+4.3 -0.3 72 +1  1023.3  -0.3  726  288    +6.4       
18 19.03.15 110 (В) 8-11{13}  20000 м    10/8 600 м средняя 
[Sc|Ac und]
+3.6 +0.8 82 1022.6  -0.7  726  288           
21 19.03.15 120 (ЮВ) 8-10{12}  20000 м    10/6 330 м средняя 
[St|Ac und]
+3.3 +1.2 86 1020.5  -2.1  724  288           
00 20.03.15 110 (В) 8-11{12}  20000 м    10/8 270 м средняя 
[St|Ac und]
+2.2 +0.3 87 -2  1018.9  -1.7  723  289           
03 20.03.15 120 (ЮВ) 7-10{11}  10 км    10/10 120 м 
[St]
+1.4 +0.4 93 -2  1018.2  -0.8  722  289  +1.2         
06 20.03.15 120 (ЮВ) 7-11{12}  2000 м  дымка{туман}  10/10 60 м 
[St]
+1.3 +0.6 95 -2  1018  0.1  722  289  +0.8         
09 20.03.15 110 (В) 7{11}  20000 м    10/8 360 м средняя 
[Sc|Ac und]
+4.1 +0.6 78 +1  1016  -1.4  721  286           
12 20.03.15 110 (В) 7{11}  20000 м    10/8 360 м средняя 
[Sc|Ac und]
+4.2 +0.5 77 +1  1014.3  -1.6  720  285           
15 20.03.15 090 (В) 4{10}  20000 м    10/10 300 м 
[St]
+2.8 +1.2 89 +1  1014.1  -0.5  719  287    +4.7       
18 20.03.15 080 (В) 0400 м  туман{морось}  ?/?  
+2.5 +1.8 95 +1  1014.4  0.3  720  287           
21 20.03.15 120 (ЮВ) 0400 м  слаб. морось{туман}  ?/?  
+2.7 +2.1 96 +2  1013.4  -0.9  719  286           
00 21.03.15 340 (С) 0300 м  туман{морось}  ?/?  
+2.3 +1.7 96 +3  1012.8  -0.6  719  287           
03 21.03.15 300 (СЗ) 0200 м  туман  ?/?  
+1.5 +0.9 96 +1  1012.9  719  288  +1.5    0.3     
06 21.03.15 320 (СЗ) 20000 м  {туман}  10/6 240 м средняя 
[St|Ac und]
+3.5 +2.9 96 +3  1013.5  0.9  719  286  +1.4         
09 21.03.15 030 (СВ) 20000 м    10/6 570 м средняя 
[Sc|Ac und]
+4.8 +1.2 77 +4  1013.4  0.2  719  285           
12 21.03.15 320 (СЗ) 20000 м    8/3 600 м средняя 
[Sc|Ac trans]
+8.6 +0.6 57 +8  1012  -0.7  719  281           
15 21.03.15 350 (С) 20000 м    8/3 1000 м средняя 
[Sc|Ac trans]
+6.6 -0.4 61 +6  1012.8  0.4  719  283    +8.7       
18 21.03.15 100 (В) 20000 м    10/4 1000 м средняя 
[Sc|Ac und]
+5 +0.2 71 +6  1014.8  1.6  720  285           
21 21.03.15 160 (Ю) 20000 м    4/0 средняя 
[Ac trans]
+3 -0.4 78 +4  1015.5  0.2  721  287           
00 22.03.15 280 (З) 20000 м    10/3 600 м средняя 
[Sc|Ac und]
+4 -0.1 75 +5  1015.3  0.1  721  286           
03 22.03.15 330 (СЗ) 20000 м    3/0 средняя 
[Ac trans]
+3.1 -0.5 77 +3  1016.1  0.6  721  287  +1.6         
06 22.03.15 340 (С) 20000 м    4/0 средняя 
[Ac trans]
+8.2 +0.2 57 +9  1016.6  1.4  722  282           
09 22.03.15 240 (ЮЗ) 20000 м    6/6 600 м 
[Sc]
+10.6 -0.4 46 +12  1015.5  -0.6  722  280           
12 22.03.15 300 (СЗ) 20000 м    6/5 1000 м средняя 
[Sc|Ac trans]
+12.9 -1 38 +12  1014  -1.1  721  277           
15 22.03.15 280 (З) 20000 м    10/3 1000 м средняя 
[Sc|Ac und]
+10 -0.2 49 +9  1014.5  721  280    +13.2       
18 22.03.15 270 (З) 20000 м    5/0 средняя 
[Ac trans]
+6.2 -0.1 64 +5  1016  0.7  721  284           
21 22.03.15 290 (З) 20000 м    10/0 
+5.2 -1.7 61 +4  1015.6  -0.6  721  285           
00 23.03.15 280 (З) 20000 м    6/0 средняя 
[Ac trans]
+5.6 -3.1 53 +4  1015.3  -0.2  721  285           
03 23.03.15 270 (З) 4{10}  20000 м    10/3 1000 м средняя 
[Sc|Ac und]
+4.4 -1.4 66 +3  1015.2  -0.3  721  286  +3.3         
06 23.03.15 280 (З) 9-13{13}  20000 м    10/3 1000 м средняя 
[Sc|Ac und]
+5.3 -1.3 62 +2  1015.8  0.7  721  285           
09 23.03.15 290 (З) 8-13{17}  20000 м    9/3 600 м кучево-дожд., средняя 
[Cb calv|Ac trans]
+8.6 -2.7 45 +6  1014.5  0.7  721  282           
12 23.03.15 310 (СЗ) 8-12{13}  20000 м    9/3 600 м кучево-дожд., средняя 
[Cb calv|Ac trans]
+9.6 -1.8 45 +7  1014  -0.3  720  281           
15 23.03.15 350 (С) 3{12}  10 км  слаб. ливневой дождь со снегом  10/8 210 м кучево-дожд., средняя 
[Cb cap|Ac und]
+1.2 +0.1 92 1017.9  722  290    +10.4  0.0     
18 23.03.15 020 (С) 10 км  в посл. час ливневой снег  10/8 150 м кучево-дожд., средняя 
[Cb cap|Ac und]
-0.5 -1.2 95 -2  1019.8  1.4  723  292           
21 23.03.15 050 (СВ) 4000 м  слаб. снег  10/10 120 м 
[]
-1.7 -2.3 96 -4  1020.8  0.8  724  294           
00 24.03.15 060 (СВ) 4000 м  слаб. снег  10/10 120 м 
[Frnb|Ns]
-2.1 -2.8 95 -5  1021.9  0.9  724  294           
03 24.03.15 070 (В) 20000 м  {снег}  10/10 600 м 
[Ns]
-2.4 -3.3 94 -5  1023.4  1.3  725  295  -2.4    равномерный
сухой снег
100% 
06 24.03.15 090 (В) 4000 м  слаб. снег  8/8 480 м средняя 
[As op]
-1.6 -2.6 93 -5  1024.9  1.6  727  295  -2.6         
09 24.03.15 120 (ЮВ) 10 км  {снег}  10/10 330 м 
[St]
+1.8 -0.4 85 1024.7  0.5  727  291           
12 24.03.15 100 (В) 20000 м  {снег}  10/8 700 м средняя 
[Sc|Ac und]
+5.1 -0.2 69 +4  1024  727  287           
15 24.03.15 150 (ЮВ) 20000 м    9/6 750 м средняя 
[Sc|Ac As]
+4.7 -0.2 70 +3  1025.1  728  288    +7.3  0.0     
18 24.03.15 150 (ЮВ) 20000 м    3/0 средняя 
[Ac trans]
+1 -0.7 88 1027.2  1.2  729  292           
21 24.03.15 200 (Ю) 20000 м    3/0 средняя 
[Ac trans]
-0.2 -2 88 -2  1028.3  0.8  729  294           
00 25.03.15 190 (Ю) 20000 м    3/0 средняя 
[Ac trans]
-0.1 -2.6 83 -2  1028.9  0.6  730  294           
03 25.03.15 180 (Ю) 20000 м    ясно 
-1.8 -3.6 87 -3  1030.5  1.2  730  297  -1.8         
06 25.03.15 140 (ЮВ) 20000 м    ясно 
+5.7 +0.5 69 +5  1030  0.9  731  288  -1.9         
09 25.03.15 130 (ЮВ) 20000 м    ясно 
+11.4 -0.4 44 +10  1027.7  -1.1  730  282           
12 25.03.15 140 (ЮВ) 20000 м    ясно 
+14.6 -2.9 30 +15  1025.7  -1.3  729  279           
15 25.03.15 090 (В) 20000 м    ясно 
+11.4 -1.6 40 +11  1026.1  -0.3  729  282    +14.9       
18 25.03.15 130 (ЮВ) 20000 м    ясно 
+6 +0.1 66 +4  1027.7  0.5  730  288           
21 25.03.15 140 (ЮВ) 20000 м    ясно 
+4.9 -0.1 70 +4  1027.3  -0.6  729  289           
00 26.03.15 140 (ЮВ) 20000 м    ясно 
+3.5 +0.2 79 +3  1026.7  -0.9  728  290           
03 26.03.15 170 (Ю) 20000 м    4/0 средняя 
[Ac trans]
+0.6 -0.9 90 -1  1027.6  0.3  729  293  +0.4         
06 26.03.15 140 (ЮВ) 20000 м    3/0 верхняя 
[Ci fib]
+7.8 +1.9 66 +6  1025.9  -0.2  729  285  +0.3         
09 26.03.15 130 (ЮВ) 20000 м    5/0 верхняя 
[Ci fib]
+15 -4 27 +15  1023.8  -0.7  728  278           
12 26.03.15 090 (В) 20000 м    5/0 верхняя 
[Ci fib]
+16.8 -5 22 +18  1022.2  -1.3  727  276           
15 26.03.15 070 (В) 20000 м    8/0 верхняя 
[Ci fib]
+13 -4.3 30 +12  1023.1  0.2  727  280    +17.1       
18 26.03.15 130 (ЮВ) 20000 м    8/0 верхняя 
[Ci fib]
+7.4 -2.2 51 +6  1025  0.8  728  286           
21 26.03.15 140 (ЮВ) 20000 м    3/0 верхняя 
[Ci fib]
+5.4 -1.3 62 +4  1023.7  -1.5  727  287           
00 27.03.15 120 (ЮВ) 20000 м    ясно 
+3.5 -1.7 69 +2  1022.1  -1.9  725  289           
03 27.03.15 100 (В) 20000 м    4/0 верхняя 
[Ci fib]
+0.7 -2.9 77 -2  1022.8  0.1  725  292  +0.6         
06 27.03.15 130 (ЮВ) 20000 м    3/0 верхняя 
[Ci fib]
+7.4 +1.1 64 +6  1021.3  725  284  +0.1         
09 27.03.15 120 (ЮВ) 20000 м    4/0 верхняя 
[Ci]
+14.7 +1.7 41 +14  1018.3  -1.5  724  277           
12 27.03.15 100 (В) 6{10}  20000 м    8/0 верхняя 
[Ci]
+17.3 +0 31 +17  1016.3  -1.5  723  274           
15 27.03.15 100 (В) 6{10}  20000 м    10/0 средняя, верхняя 
[Ac trans|Ci]
+12.2 +1.2 47 +11  1018  0.8  724  279    +17.6       
18 27.03.15 100 (В) 20000 м    8/0 средняя, верхняя 
[Ac trans|Ci fib]
+6.6 +2.2 73 +5  1020.5  1.3  725  285           
21 27.03.15 100 (В) 20000 м    6/0 средняя 
[Ac trans]
+5.7 +3.9 88 +3  1019.8  -0.9  724  285           
00 28.03.15 100 (В) 10 км    3/0 средняя 
[Ac trans]
+4.5 +3.6 94 +2  1020.1  0.1  724  286           
03 28.03.15 100 (В) 7-10{12}  0200 м  туман  ?/?  
+4.4 +3.8 96 +1  1020.8  0.7  725  287  +4         
06 28.03.15 110 (В) 10-13{17}  4000 м  дымка{туман}  10/10 150 м 
[St]
+5 +4.4 96 +1  1020.6  -0.2  724  286           
09 28.03.15 100 (В) 13-17{18}  10 км    10/10 150 м 
[St]
+5.5 +4.1 91 +1  1019.2  -1.1  724  285           
12 28.03.15 110 (В) 15-20{20}  10 км    10/10 180 м 
[St]
+6.7 +4.5 86 +3  1017.9  -1  723  283           
15 28.03.15 100 (В) 14  1800 м  дымка  10/10 100 м 
[St]
+4.6 +3.9 95 1018.3  0.1  723  286    +6.7       
18 28.03.15 110 (В) 15-19{23}  4000 м  дымка  10/10 100 м 
[St]
+3 +2.1 94 -2  1018.6  723  288           
21 28.03.15 110 (В) 12-16{23}  10 км    10/10 150 м 
[St]
+2.3 +1 91 -3  1018.6  -0.1  723  289           
00 29.03.15 110 (В) 11-15{20}  10 км    10/10 180 м 
[St]
+2.2 +1.1 92 -2  1019.1  0.4  723  289           
03 29.03.15 110 (В) 10-14{18}  3000 м  ливневой дождь  10/8 100 м кучево-дожд., средняя 
[Cb cap|Ac und]
+1.5 +0.8 95 -3  1019.7  0.4  723  290  +1.5       
06 29.03.15 110 (В) 10-14{16}  10 км  слаб. ливневой дождь  10/8 150 м кучево-дожд., средняя 
[Cb cap|Ac und]
+0.9 +0.1 94 -4  1020.9  724  291  +0.9         
09 29.03.15 120 (ЮВ) 11-16{18}  10 км  в посл. час ливневой дождь  10/8 180 м кучево-дожд., средняя 
[Cb calv|Ac As]
+1.2 +0.4 94 -4  1020.8  724  290           
12 29.03.15 120 (ЮВ) 13-17  10 км  {ливн. осадки}  10/8 150 м кучево-дожд. 
[Cb calv]
+0.8 -0.2 93 -5  1020.4  -0.5  724  291           
15 29.03.15 110 (В) 11  10 км    10/10 100 м 
[St]
+0.1 -0.7 94 -5  1019.8  -0.7  723  291    +1.5     
18 29.03.15 120 (ЮВ) 11-16{16}  5000 м  дымка  10/10 120 м 
[St]
-0.3 -0.9 96 -6  1019.7  0.1  723  292           
21 29.03.15 120 (ЮВ) 11-16{17}  20000 м    10/10 60 м 
[St]
-0.6 -1.3 95 -6  1017.8  -1.8  722  291           
00 30.03.15 120 (ЮВ) 11-14{16}  10 км    10/10 60 м 
[St]
-0.2 -0.8 96 -5  1015.3  -2.4  720  290           
03 30.03.15 110 (В) 11-15{16}  10 км    10/10 100 м 
[St]
-0.3 -1.1 94 -6  1013.9  -1.3  719  290  -0.8         
06 30.03.15 110 (В) 11-14{17}  10 км    10/10 120 м 
[St]
-0 -0.9 94 -5  1013.1  -0.7  718  289           
09 30.03.15 110 (В) 13-17{17}  4000 м  дымка  10/10 120 м 
[St]
+0.7 -0.5 92 -5  1011.7  -1.2  717  288           
12 30.03.15 110 (В) 12-17{17}  4000 м  дымка  10/10 120 м 
[St]
+1 -0.2 92 -4  1011.4  -0.2  717  288           
15 30.03.15 100 (В) 8-11{17}  4000 м  дымка  10/10 150 м 
[St]
+0.1 -0.8 94 -4  1013  1.4  718  289    +1.3       
18 30.03.15 100 (В) 6{13}  20000 м  в посл. час переохл. осадки (гололёд){морось} [диам. гололёда 1 мм]  10/10 150 м 
[St]
-1.2 -2.1 94 -5  1014.5  1.2  719  291           
21 30.03.15 110 (В) 8-11{11}  20000 м  [диам. гололёда 1 мм]  10/10 180 м 
[St]
-1.3 -2.6 91 -6  1014.4  0.1  719  291           
00 31.03.15 110 (В) 7{11}  20000 м  [диам. гололёда 1 мм]  10/10 210 м 
[St]
-1.5 -2.7 92 -6  1014.8  0.3  719  292           
03 31.03.15 110 (В) 6{11}  1200 м  дымка [диам. гололёда 1 мм]  10/10 60 м 
[St]
-1.9 -2.4 96 -6  1015.8  0.9  720  292  -1.9    0.9     
06 31.03.15 110 (В) 8-11{11}  10 км  [диам. гололёда 1 мм]  10/10 120 м 
[St]
-1.1 -1.9 94 -6  1016  0.4  720  292           
09 31.03.15 110 (В) 7{11}  4000 м  дымка  10/10 120 м 
[St]
+0.2 -1 92 -4  1015.6  0.1  720  290           
12 31.03.15 110 (В) 7-10{10}  20000 м    10/10 180 м 
[St]
+1.7 -0.3 87 -2  1014.9  -0.4  720  288           
15 31.03.15 120 (ЮВ) 7-10{11}  20000 м    10/8 270 м средняя 
[St|Ac und]
+1.4 +0.1 91 -2  1014.3  -0.6  719  288    +1.9       
18 31.03.15 130 (ЮВ) 7-10{12}  20000 м    10/10 210 м 
[St]
+0.9 -0.3 92 -3  1014.5  0.1  719  289           
21 31.03.15 130 (ЮВ) 8-10{11}  1800 м  дымка  10/10 100 м 
[St]
+0.7 +0 95 -3  1013.1  -1.3  719  289           
00 01.04.15 140 (ЮВ) 8-11{12}  10 км    10/10 120 м 
[St]
+0.4 -0.4 94 -4  1011.8  -1.3  718  289           
03 01.04.15 140 (ЮВ) 6{11}  4000 м  дымка  10/10 60 м 
[St]
-0.1 -0.7 96 -4  1011.6  -0.2  717  289  -0.1        сухая 
06 01.04.15 140 (ЮВ) 20000 м    9/6 210 м средняя 
[St|Ac trans]
+3.2 +0.7 84 1010.6  -0.3  717  285           
09 01.04.15 130 (ЮВ) 5{10}  20000 м    10/8 630 м средняя 
[Sc|Ac und]
+5.9 +0.8 70 +4  1010.3  0.2  717  283           
12 01.04.15 130 (ЮВ) 20000 м    10/6 800 м средняя 
[Sc|Ac und]
+6.1 +1.6 73 +5  1011.3  718  283           
15 01.04.15 140 (ЮВ) 10 км  слаб. ливневой дождь  10/8 600 м кучево-дожд., средняя 
[Cb cap|Ac und]
+3.2 +2.4 95 +1  1012.9  719  286    +8.3     
18 01.04.15 140 (ЮВ) 10 км  слаб. ливневой дождь  10/8 300 м кучево-дожд., средняя 
[Cb cap|Ac und]
+2.5 +1.9 96 1013.2  0.1  719  287           
21 01.04.15 140 (ЮВ) 10 км  {ливн. осадки}  10/8 900 м кучево-дожд., средняя 
[Cb calv|Ac und]
+2 +1.4 96 +1  1012.6  -0.7  718  287           
00 02.04.15 150 (ЮВ) 20000 м  {ливн. осадки}  10/5 600 м кучево-дожд., средняя 
[Cb calv|Ac und]
+2.2 +1.6 96 +1  1011.6  -0.7  718  287           
03 02.04.15 140 (ЮВ) 20000 м    10/5 1000 м кучево-дожд., средняя 
[Cb calv|Ac und]
+3 +1.9 92 +2  1010.7  -0.7  717  285  +1.9      влажная 
06 02.04.15 120 (ЮВ) 20000 м    8/1 300 м средняя 
[St|Ac trans]
+5 +2.8 86 +3  1008.4  -1.7  716  283           
09 02.04.15 120 (ЮВ) 8-10{12}  20000 м    4/1 300 м средняя, верхняя 
[Sc|Ac trans|Ci fib]
+11.9 +4.4 60 +10  1004.5  -2.5  714  275           
12 02.04.15 140 (ЮВ) 8-12{13}  20000 м    8/1 600 м верхняя 
[Sc|Ci]
+10.7 +3.1 59 +9  1001.9  -2.7  712  275           
15 02.04.15 160 (Ю) 9-11{13}  20000 м    10/3 600 м кучево-дожд., средняя 
[Cb calv|Ac und]
+5.4 +1.6 76 +2  1003.1  0.2  712  281    +12.8       
18 02.04.15 150 (ЮВ) 2{12}  20000 м  слаб. ливневой дождь  10/6 360 м кучево-дожд., средняя 
[Cb cap|Ac und]
+3.8 +2.7 93 +3  1005.1  1.6  713  283           
21 02.04.15 270 (З) 20000 м  {ливн. осадки}  10/5 480 м кучево-дожд., средняя 
[Cb calv|Ac und]
+5.9 +4.4 90 +4  1005.5  0.8  714  281           
00 03.04.15 270 (З) 11-16{18}  20000 м  {ливн. осадки}  10/6 330 м средняя 
[St|Ac und]
+3.1 +1.3 88 -1  1007.6  1.5  715  285           
03 03.04.15 270 (З) 12-17{18}  20000 м    10/10 
[St]
+2.2 -0.1 85 -3  1011.2  3.1  717  287  +2.2      сухая 
Время (UTC), дата Ветер
(°,м/с) 
Видим.   Явления Облачность Т
(°С)
Тd
(°С)
f(%) Тe
(°С)
Pmin
(гПа)
dP
(гПа)
Po
(мм)
O2
(г/м3)
Тmin Tmax R s Состояние
почвы